Location: Unspecified
(0.0000°N, 0.0000°E)
Time: 11:38:14
(UTC+02:00)

GPS 2-12 Rocket1 - Visible Passes

Search period start: 22 June 2018 00:00
Search period end: 02 July 2018 00:00
Orbit: 587 x 652 km, 20.0° (Epoch: 21 June)

Date Brightness Start Highest point End Pass type
(mag) Time Alt. Az. Time Alt. Az. Time Alt. Az.
23 Jun 4.9 21:15:13 10° SSW 21:17:15 15° S 21:17:15 15° S visible
24 Jun 4.6 21:30:26 10° SW 21:32:48 21° S 21:32:48 21° S visible
25 Jun 4.4 21:45:59 10° SW 21:48:26 27° SSW 21:48:26 27° SSW visible
26 Jun 4.4 22:01:49 10° WSW 22:04:11 30° SW 22:04:11 30° SW visible
27 Jun 5.9 06:45:29 10° N 06:46:40 11° NNE 06:47:51 10° NNE visible
27 Jun 3.7 20:34:42 10° SW 20:38:52 35° SSE 20:42:56 10° E visible
27 Jun 4.9 22:17:55 10° WSW 22:20:00 26° W 22:20:00 26° W visible
28 Jun 5.7 07:00:05 10° NNW 07:02:58 16° NNE 07:05:53 10° NE visible
28 Jun 3.0 20:50:29 10° WSW 20:54:59 62° SSE 20:58:47 14° E visible
28 Jun 5.5 22:34:21 10° W 22:35:51 19° WNW 22:35:51 19° WNW visible
29 Jun 5.2 07:15:23 10° NW 07:19:10 25° NNE 07:23:01 10° ENE visible
29 Jun 3.1 21:06:31 10° WSW 21:11:04 74° NNW 21:14:40 16° ENE visible
29 Jun 6.0 22:51:08 10° WNW 22:51:43 12° WNW 22:51:43 12° WNW visible
30 Jun 5.6 05:50:09 13° N 05:51:35 14° NNE 05:54:04 10° NE visible
30 Jun 4.3 07:30:58 10° NW 07:35:18 41° NNE 07:39:44 10° E visible
30 Jun 4.1 21:22:51 10° W 21:27:10 41° NNW 21:30:30 15° NE visible
01 Jul 5.1 06:05:54 17° NNW 06:07:49 22° NNE 06:11:23 10° ENE visible
01 Jul 5.0 21:39:33 10° WNW 21:43:17 25° NNW 21:46:18 13° NNE visible
